International Virtual Aviation Organisation

Eastern Europe and Northern Asia MCD

 

Карточка аэропорта UWGG

Внимание!
Информация на этой странице в стадии наполнения.
Если вы не увидели какой-то информации, или заметили неточность - пожалуйста сообщите нам!
Спасибо!
Команда RU-STAFF
Название аэропортаСтригино
Название аэропорта (англ.)Strigino
Превышение256 ft. (78 m.)
Координаты56°13.8', 43°47.202'
Высота перехода900 m
Эшелон переходаBy ATC
Коды ответчика2120-2147
Зона ОрВДМосква РПИ (UUWV)
Данные METARUWGG 121300Z 13004MPS CAVOK 14/M03 Q1035 R18L/090060 NOSIG
Проноз погоды (TAF)UWGG 121051Z 1212/1312 10006G12MPS 9999 SCT040 TX15/1212Z TN04/1301Z TEMPO 1303/1312 16003G08MPS
NOTAMshow/hide NOTAM
AWOS   TABLE

Информация о ВПП

ВПП Длина ВПП (м.) Покрытие Курс ВПП Частота ILS
18L3000Цементобетон179108.1
18R2806Асфальтобетон179109.9
36L2806Асфальтобетон359109.5
36R3000Цементобетон359110.5

Диспетчерские позиции

Позывной Наименование органа УВД Частота
UWGG_APPНижний-Подход124.700
UWGG_R_APPНижний-Круг120.800
UWGG_TWRНижний-Вышка120.400
UWGG_GNDНижний-Руление121.800



Спутниковое изображение